FENGYUN 1C DEB, 32152

Orbit data source: Space-Track

FENGYUN 1C DEB, 32152 is space debris in SSO originally from a launch on Mon, 10 May 1999 UTC launched from the Taiyaun Space Center, China (TSC). Fengyun 1C debris stems from the Chinese weather satellite Fengyun-1C, which was intentionally destroyed by a Chinese anti-satellite missile in 2007. This event dramatically increased the amount of space debris, with thousands of trackable fragments posing hazards to satellites and human spaceflight. The Fengyun 1C debris cloud has become a focal point in discussions about space sustainability and the need for international regulations to prevent the creation of new debris.

Loading next visibility...
Identifier
32152, 1999-025CSW
Orbit
SSO
Country
Flag of CNCN / PRC
Related business
Manufacturer
Unknown
Mission
Spacecraft
Bus & Motor
Unknown
Mass
Unknown
Launch date (UTC)
1999-05-10 (27 years ago)
Launch vehicle
Unknown
Launch site
Taiyaun Space Center, China (TSC)
Object type
Payload
Rocket body
Debris
Shape & HBR
Unknown shape, 0.1 m
Radar Cross Section
Small (<0.1 m²)

Expand to show TLE details & history
Last TLE update: 3 days ago

TLE from 3 days ago
0 FENGYUN 1C DEB
1 32152U 99025CSW 26205.30208828  .00006637  00000-0  13788-2 0  9995
2 32152  98.7770  23.6681 0051599 236.0816 123.5470 14.59631846658710
Epoch: 2026-07-24T07:15Z
TLE epoch observation values (Epoch: 2026-07-24T07:15:00.427Z)
Latitude
0.00001°
Longitude
-27.11436°
Altitude
717.631 km
Speed
7.486 km/s
True Right ascension
01h 34m 40s
True Declination
0° 00' 00"
Sunlit
Object was in daylight at epoch
Visualization orbit readout
Latitude
Unknown
Longitude
Unknown
Altitude
Unknown
Speed
Unknown
Apparent Right ascension
Unknown
Apparent Declination
Unknown
Sunlit
N/A
Visualization observer readout
Local Sidereal Time
22:25:41
Azimuth
Unknown
Elevation
Unknown
Doppler factor
Unknown
Orbital elements
Apogee altitude
727.95 km
Perigee altitude
654.994 km
Semi-major axis
7,069.609 km
Eccentricity
0.00516
Inclination
98.777°
RAAN
23.6681°
Arg. of periapsis
236.0816°
True anomaly
124.03804°
Mean anomaly
123.547°
Eccentric anomaly
123.79269°
Mean motion
3.65132 °/min
Orbital period
98.59 mins
BSTAR
0.0013788
Loading maneuver chart data...
Computing Atmospheric mass density...

Documentation

Showing up to 5 results
|